Wind_Speed
33 29 37 37 38 42 41 41 44 45 43 40 39 41 45 39 37 39 37 36 36 31 25 28 27 35 43 42 38 39 41 43 44 47 49 50 51 57 65 69 69 71 69 69
39 34 28 32 39 43 38 39 45 44 35 33 35 43 39 37 35 32 31 28 21 22 21 21 25 29 31 35 38 40 42 44 46 48 51 53 52 51 56 64 70 70 71 70
33 40 35 42 33 38 36 37 35 35 34 30 31 40 34 37 33 24 21 16 14 18 19 20 23 31 39 39 41 43 44 45 46 47 51 55 56 53 52 56 63 69 70 69
25 23 40 36 36 34 35 35 33 32 29 20 28 18 44 35 19 16 22 17 21 24 24 29 38 40 46 40 40 42 43 44 45 46 48 53 56 57 54 54 56 61 68 70
40 37 30 33 33 29 31 32 32 34 37 31 37 13 17 18 6 8 9 13 22 33 30 40 42 47 45 42 42 41 42 43 45 47 48 50 54 56 55 57 56 57 60 69
32 26 24 32 26 26 27 29 33 26 30 8 29 14 5 17 19 19 15 19 31 34 40 46 49 45 45 43 41 38 36 37 40 43 46 51 53 52 56 57 57 56 57 60
44 28 19 28 24 32 25 26 8 6 4 6 22 19 16 22 17 21 21 26 34 41 48 46 45 45 44 41 39 37 36 36 40 43 45 47 51 56 57 55 59 57 55 55
20 25 27 14 25 32 27 20 6 7 4 10 31 6 8 12 13 12 26 33 42 42 44 43 44 42 40 40 38 39 39 39 39 41 44 46 46 52 59 60 57 59 60 54
19 16 22 23 25 24 20 20 20 15 27 6 8 17 28 12 16 27 28 46 42 46 44 43 40 37 36 36 35 37 39 41 41 42 47 49 49 46 53 63 60 58 59 56
25 37 33 26 30 21 10 14 10 6 4 6 8 22 17 27 32 40 34 54 48 47 43 40 37 36 36 36 35 34 35 38 38 39 39 48 54 50 47 58 64 62 59 53
37 24 29 21 10 31 27 19 12 9 8 3 9 11 24 34 30 36 55 43 45 41 41 40 40 39 38 38 38 39 41 42 42 40 42 43 51 52 48 53 64 63 60 53
21 34 23 29 33 25 25 19 9 4 7 19 16 28 10 18 46 43 37 40 34 36 39 40 40 38 37 37 39 43 44 44 42 37 40 43 44 49 47 47 59 63 58 50
32 14 25 19 19 9 13 7 10 21 23 19 8 18 37 42 34 31 34 29 33 37 40 35 35 35 36 36 38 41 44 44 38 30 26 34 42 42 42 42 50 61 58 48
22 22 18 16 23 28 27 27 25 19 14 23 23 38 36 31 32 31 25 28 33 36 39 40 37 33 35 35 37 39 41 39 34 27 21 28 35 40 39 38 43 52 51 47
17 21 22 25 23 25 26 27 27 27 27 19 35 33 26 33 32 26 24 29 32 36 38 39 43 37 35 35 34 36 36 28 21 18 22 21 21 32 38 37 37 40 42 44
11 12 17 23 18 16 24 26 9 13 13 12 15 21 27 27 27 21 23 28 32 34 38 38 42 42 37 36 38 37 33 27 18 15 14 14 18 27 34 38 39 42 44 54
12 8 7 6 12 22 8 10 14 17 12 7 16 26 32 29 25 22 22 26 31 33 36 37 41 46 42 37 40 37 38 23 9 8 10 8 17 25 35 41 44 47 59 63
17 11 6 10 14 2 11 12 11 12 10 10 22 27 32 26 23 18 19 24 28 31 34 37 38 42 43 41 36 35 36 25 5 9 9 12 15 22 31 39 46 56 68 37
18 7 5 4 9 18 4 14 21 17 16 14 21 27 31 23 19 16 18 23 26 29 32 36 38 39 41 44 43 36 37 42 40 16 4 13 9 14 25 39 51 55 45 51
15 10 8 3 3 3 7 22 15 16 5 19 21 26 30 26 23 17 15 19 22 25 28 32 35 37 37 41 41 44 43 45 45 42 41 41 34 28 37 43 43 47 42 56
16 8 13 13 9 4 8 23 19 7 13 25 24 24 24 26 24 18 13 15 18 21 24 28 32 36 38 38 38 40 45 49 46 40 38 41 45 48 46 42 43 45 59 61
9 10 5 6 5 3 17 20 18 22 23 24 25 23 21 22 21 16 12 12 14 17 20 24 27 30 33 36 38 40 44 45 45 44 43 41 39 36 37 40 44 48 47 48
9 4 20 14 14 21 11 19 20 16 18 24 25 22 22 22 21 16 12 9 10 14 18 21 24 26 28 31 35 38 42 42 40 39 42 42 36 35 35 34 34 29 30 30
20 21 25 21 21 19 16 17 17 21 24 22 22 23 21 21 19 17 12 10 8 10 14 17 19 22 24 26 30 33 36 37 40 39 39 36 36 34 33 31 30 27 27 24
28 28 29 31 23 14 14 21 27 21 21 23 22 21 20 19 16 17 14 12 10 8 10 12 14 17 20 22 25 28 30 31 33 35 37 40 39 34 31 28 29 26 25 23
20 16 15 19 17 21 24 23 25 24 22 21 20 18 18 19 16 16 16 13 14 11 8 8 9 11 13 16 19 22 25 28 29 28 29 32 34 36 36 36 33 29 26 23
Wind_Direction
307 288 281 287 286 291 290 296 297 297 296 293 289 286 285 290 286 284 289 293 291 282 282 262 254 257 261 269 265 266 267 262 261 259 259 256 254 253 247 242 237 235 232 231
313 291 296 289 291 289 295 295 299 298 296 295 294 288 290 290 291 287 293 286 266 268 262 259 265 279 288 284 279 274 270 267 264 260 257 255 251 252 250 245 241 235 233 232
302 296 297 308 300 301 298 303 310 307 309 294 291 291 293 283 280 286 273 276 287 288 284 284 289 303 307 294 283 276 272 269 265 261 258 254 253 251 249 246 245 241 235 232
302 294 312 305 299 303 306 309 309 305 304 294 295 290 296 301 303 279 259 267 301 311 297 306 300 296 305 295 285 277 270 265 261 258 256 253 251 250 249 248 245 244 239 233
292 313 313 310 309 308 303 318 306 299 290 290 290 267 283 309 1 359 291 267 302 310 299 308 307 302 301 297 289 279 270 264 259 256 254 252 251 248 248 246 246 243 242 237
295 315 314 316 311 313 306 310 316 311 290 255 276 307 288 318 333 323 292 298 310 313 305 305 307 305 302 297 293 284 273 266 260 255 252 249 249 248 247 244 243 244 243 240
302 304 299 310 319 320 306 316 308 307 319 269 313 326 289 294 297 311 313 312 308 309 311 311 310 306 303 300 294 285 275 272 265 259 254 250 247 245 245 245 242 241 239 239
304 307 308 305 309 311 298 301 286 295 291 303 309 265 285 327 319 323 329 322 313 316 316 314 313 310 306 300 295 287 278 275 273 265 255 250 250 246 242 241 241 239 239 241
324 310 308 321 312 313 303 283 291 289 288 265 249 295 323 321 333 328 320 323 317 320 321 318 313 310 307 303 298 292 284 278 273 267 261 253 248 247 244 237 235 236 237 241
315 306 312 308 303 313 281 298 304 286 298 305 292 301 321 320 315 311 307 325 321 325 322 319 322 319 317 312 305 296 288 281 273 268 266 256 247 246 245 238 231 231 233 234
307 306 317 308 306 316 302 290 290 279 266 300 324 302 310 309 314 316 319 323 326 328 329 332 329 325 321 316 311 305 298 292 285 273 255 254 245 242 243 238 226 226 230 229
317 308 298 304 302 308 298 285 269 286 315 306 288 298 338 315 319 317 320 327 335 337 342 338 329 325 323 319 311 306 306 301 293 282 262 244 240 240 237 234 223 220 225 227
312 291 303 307 317 321 290 246 312 308 297 270 281 283 302 318 323 320 325 338 343 344 345 343 338 334 330 326 321 318 313 307 300 284 256 240 235 233 234 229 218 216 220 219
296 289 285 278 285 290 302 298 304 300 273 286 278 293 316 330 331 334 341 343 347 345 348 349 350 345 341 339 336 329 319 311 295 279 257 243 237 228 227 223 211 212 218 218
316 290 296 289 274 279 293 297 305 296 286 272 293 303 329 334 333 338 339 343 343 348 351 351 353 356 352 353 349 340 330 324 303 280 259 253 235 222 216 211 204 203 205 212
325 295 304 285 296 288 294 299 320 348 312 289 316 329 338 334 332 336 337 344 347 351 356 356 358 3 6 5 2 3 348 334 320 286 254 236 226 207 200 197 194 195 199 192
331 311 300 277 304 312 315 359 327 328 346 355 347 348 343 340 338 334 337 348 352 355 359 3 4 2 10 19 13 15 14 355 309 278 250 215 200 199 188 188 191 194 189 195
343 306 279 291 328 342 349 3 11 348 333 303 350 352 344 334 337 342 346 352 355 358 4 9 9 8 12 26 21 31 33 38 70 123 136 141 188 205 197 199 198 194 195 188
355 319 263 280 303 292 323 355 339 334 340 2 350 347 350 343 341 348 352 352 357 1 9 13 15 15 10 25 23 40 45 55 70 102 196 146 208 200 196 197 190 191 194 191
352 333 241 294 272 271 342 343 336 327 254 353 345 342 344 347 346 341 350 354 358 4 8 15 19 21 22 25 22 30 48 52 64 71 90 105 122 158 177 184 193 192 196 170
335 335 254 263 293 284 306 340 342 332 320 330 331 331 337 344 341 333 342 353 358 5 9 14 18 22 26 31 28 38 40 46 56 59 72 79 88 93 106 125 140 150 163 161
293 311 323 321 276 288 328 328 330 314 318 313 318 325 324 335 339 331 325 350 354 1 5 9 14 20 26 32 35 39 48 48 45 46 62 70 72 77 86 95 100 111 125 138
283 243 304 279 271 305 313 319 316 315 325 328 322 320 318 325 330 333 310 331 346 351 1 8 11 16 23 29 36 39 49 54 57 57 49 56 69 75 72 73 79 86 100 108
279 288 281 281 283 296 304 303 308 315 314 321 320 318 312 313 316 327 307 304 320 338 350 4 11 16 21 30 33 38 42 49 58 63 69 69 62 59 72 75 76 84 87 93
292 290 274 271 280 291 304 312 303 309 309 310 316 316 311 309 305 312 317 288 291 307 333 354 5 14 23 29 35 36 42 44 50 57 63 70 75 77 76 77 77 78 82 84
308 298 291 274 274 286 299 307 307 311 311 316 315 304 307 304 295 297 307 299 280 281 292 325 348 3 15 25 35 40 39 45 46 51 61 64 70 74 75 76 79 87 93 91
Height
3004 2998 2989 2986 2983 2975 2969 2963 2957 2953 2952 2947 2942 2936 2929 2932 2931 2927 2923 2920 2919 2919 2920 2915 2914 2913 2912 2914 2912 2911 2909 2911 2911 2912 2914 2917 2919 2922 2927 2933 2943 2952 2961 2968
2994 2987 2984 2979 2976 2968 2963 2957 2950 2945 2944 2941 2934 2924 2925 2921 2920 2919 2915 2913 2910 2909 2911 2908 2908 2908 2906 2903 2901 2900 2898 2899 2900 2901 2902 2904 2907 2909 2914 2919 2925 2935 2945 2955
2990 2980 2977 2973 2967 2961 2957 2953 2945 2941 2936 2932 2929 2918 2917 2911 2911 2908 2908 2908 2906 2905 2904 2903 2901 2899 2896 2893 2890 2888 2887 2886 2888 2888 2888 2891 2893 2897 2900 2905 2911 2920 2931 2941
2980 2975 2973 2967 2961 2958 2950 2948 2942 2937 2934 2927 2928 2913 2907 2903 2901 2903 2902 2903 2902 2900 2898 2897 2894 2890 2886 2881 2877 2875 2874 2873 2874 2875 2875 2876 2879 2882 2888 2893 2898 2905 2914 2926
2972 2971 2965 2961 2958 2954 2948 2944 2939 2933 2927 2924 2915 2916 2902 2900 2900 2901 2901 2900 2897 2895 2891 2888 2883 2878 2873 2868 2864 2861 2859 2858 2858 2860 2861 2862 2864 2870 2875 2879 2884 2891 2899 2909
2966 2968 2966 2960 2953 2951 2947 2941 2934 2927 2921 2918 2909 2911 2902 2900 2899 2899 2899 2897 2893 2889 2885 2879 2873 2866 2860 2855 2849 2846 2844 2843 2843 2844 2846 2848 2851 2856 2859 2865 2870 2878 2885 2894
2962 2959 2959 2957 2950 2946 2944 2940 2932 2928 2922 2916 2909 2908 2902 2897 2897 2896 2895 2892 2888 2882 2875 2867 2860 2853 2846 2841 2836 2833 2831 2830 2829 2828 2830 2833 2836 2840 2844 2850 2856 2864 2870 2879
2954 2948 2953 2951 2949 2943 2938 2939 2936 2926 2923 2915 2909 2905 2899 2896 2895 2893 2891 2887 2880 2873 2867 2858 2849 2841 2834 2828 2823 2820 2818 2816 2815 2814 2816 2817 2820 2823 2828 2834 2842 2849 2857 2866
2954 2950 2948 2949 2944 2943 2937 2935 2933 2928 2919 2917 2907 2902 2900 2895 2893 2890 2886 2881 2873 2866 2857 2848 2841 2833 2826 2819 2813 2807 2803 2801 2800 2800 2800 2801 2803 2807 2812 2819 2827 2834 2845 2854
2957 2940 2946 2943 2941 2938 2935 2934 2930 2926 2922 2921 2904 2901 2897 2894 2891 2887 2881 2874 2865 2857 2848 2840 2831 2823 2815 2808 2802 2796 2792 2788 2786 2785 2784 2784 2786 2791 2796 2801 2809 2819 2830 2842
2954 2945 2938 2936 2936 2935 2933 2930 2930 2926 2923 2916 2908 2900 2898 2894 2890 2884 2878 2870 2861 2851 2841 2830 2821 2813 2806 2798 2791 2783 2778 2773 2770 2768 2768 2767 2769 2774 2779 2783 2793 2805 2817 2829
2951 2943 2936 2934 2930 2930 2928 2927 2927 2925 2922 2920 2917 2892 2894 2892 2889 2882 2875 2867 2858 2848 2837 2827 2817 2808 2800 2791 2782 2772 2764 2757 2751 2748 2748 2750 2753 2758 2763 2769 2779 2793 2805 2819
2946 2939 2931 2926 2927 2924 2924 2923 2924 2924 2921 2915 2915 2897 2892 2890 2885 2879 2870 2864 2855 2844 2835 2826 2815 2805 2795 2784 2773 2762 2751 2740 2733 2730 2732 2735 2739 2745 2752 2759 2768 2782 2796 2809
2942 2937 2935 2932 2927 2927 2924 2921 2921 2920 2915 2908 2906 2895 2889 2886 2880 2873 2867 2862 2853 2844 2834 2823 2814 2803 2791 2780 2767 2753 2740 2729 2720 2718 2721 2724 2728 2735 2744 2751 2759 2772 2787 2800
2935 2931 2929 2925 2923 2922 2919 2916 2914 2912 2908 2908 2898 2896 2889 2884 2877 2871 2866 2860 2852 2844 2834 2822 2812 2801 2789 2778 2765 2750 2732 2720 2712 2710 2712 2715 2720 2726 2735 2745 2754 2766 2779 2792
2929 2925 2925 2918 2919 2917 2913 2910 2908 2905 2902 2900 2899 2894 2889 2884 2877 2871 2865 2859 2852 2843 2833 2823 2814 2801 2789 2777 2763 2749 2729 2716 2709 2706 2709 2711 2715 2720 2729 2739 2750 2762 2773 2785
2927 2924 2923 2917 2915 2913 2908 2907 2906 2904 2902 2901 2898 2894 2886 2880 2875 2870 2866 2859 2852 2844 2835 2826 2815 2803 2791 2778 2767 2753 2736 2720 2712 2709 2706 2712 2717 2722 2727 2736 2747 2757 2767 2775
2927 2923 2924 2918 2914 2914 2909 2906 2905 2903 2901 2900 2897 2892 2886 2879 2875 2870 2866 2860 2855 2847 2838 2830 2820 2809 2798 2785 2776 2762 2749 2732 2719 2718 2712 2716 2717 2722 2730 2737 2744 2751 2761 2775
2927 2923 2922 2920 2916 2909 2906 2907 2905 2901 2900 2899 2895 2890 2885 2878 2874 2871 2867 2861 2856 2850 2842 2834 2825 2817 2806 2794 2784 2772 2761 2746 2734 2727 2721 2723 2722 2727 2729 2738 2747 2753 2762 2778
2926 2922 2922 2918 2916 2914 2908 2906 2903 2900 2898 2896 2893 2889 2884 2878 2873 2871 2868 2863 2858 2853 2847 2841 2833 2825 2816 2804 2795 2782 2771 2758 2748 2746 2741 2736 2733 2734 2737 2743 2750 2759 2767 2776
2924 2921 2918 2916 2914 2910 2908 2906 2903 2901 2901 2894 2891 2888 2884 2879 2875 2871 2868 2865 2860 2856 2850 2845 2839 2832 2824 2815 2805 2796 2784 2770 2766 2764 2758 2749 2747 2747 2750 2753 2758 2763 2766 2779
2925 2923 2917 2916 2913 2910 2907 2905 2905 2901 2896 2893 2889 2886 2883 2879 2875 2870 2868 2866 2862 2859 2854 2848 2843 2838 2833 2826 2817 2806 2795 2787 2780 2774 2769 2763 2763 2765 2765 2766 2770 2771 2777 2787
2922 2921 2919 2919 2911 2907 2905 2902 2900 2897 2893 2890 2887 2884 2881 2877 2874 2870 2867 2866 2864 2860 2857 2852 2847 2842 2838 2833 2827 2819 2810 2805 2797 2791 2784 2779 2778 2777 2776 2777 2779 2784 2790 2795
2917 2916 2913 2911 2905 2904 2902 2899 2896 2894 2891 2887 2884 2880 2878 2875 2872 2870 2866 2865 2864 2862 2859 2855 2851 2847 2842 2839 2834 2830 2824 2819 2815 2810 2805 2801 2797 2794 2791 2791 2793 2799 2802 2807
2911 2909 2905 2902 2900 2898 2898 2895 2892 2890 2887 2883 2880 2877 2874 2872 2870 2868 2866 2863 2863 2863 2861 2858 2855 2851 2847 2843 2839 2836 2834 2830 2827 2824 2819 2816 2814 2812 2811 2810 2810 2811 2813 2817
2903 2901 2899 2896 2895 2894 2893 2890 2885 2884 2881 2878 2875 2874 2872 2869 2868 2866 2864 2863 2861 2861 2861 2860 2857 2855 2852 2848 2845 2842 2839 2837 2834 2833 2831 2829 2829 2828 2826 2825 2827 2828 2830 2833